DAL1426 KSGU-KSLC

Flight info

Callsign DAL1426
Flight time 0h 48m
Altitude 37000
Route HIVKA2 URIAH MLF PITTT2
Aircraft B739/M-SDE2E3FGHIRWXY/LB1

Departure

Time 2026-05-06 04:22
Airport St George Regional Airport (KSGU)

Arrival

Time 2026-05-06 05:10
Airport Salt Lake City International Airport (KSLC)
Time Latitude Longitude Altitude Speed Heading
2026-05-06 03:47 37.03079 -113.50984 2873 ft 0 kts 113°
2026-05-06 04:11 37.03084 -113.50997 2872 ft 4 kts 107°
2026-05-06 04:11 37.03087 -113.51029 2871 ft 4 kts 74°
2026-05-06 04:11 37.03075 -113.51054 2870 ft 4 kts 21°
2026-05-06 04:11 37.03060 -113.51058 2870 ft 3 kts
2026-05-06 04:12 37.03058 -113.51058 2871 ft 3 kts
2026-05-06 04:14 37.03066 -113.51058 2870 ft 2 kts
2026-05-06 04:14 37.03083 -113.51060 2870 ft 4 kts 345°
2026-05-06 04:14 37.03120 -113.51072 2867 ft 7 kts 357°
2026-05-06 04:14 37.03166 -113.51056 2867 ft 7 kts 20°
2026-05-06 04:15 37.03211 -113.51035 2867 ft 7 kts 22°
2026-05-06 04:15 37.03255 -113.51013 2868 ft 7 kts 22°
2026-05-06 04:15 37.03298 -113.50992 2867 ft 7 kts 21°
2026-05-06 04:15 37.03347 -113.50965 2867 ft 9 kts 26°
2026-05-06 04:16 37.03408 -113.50928 2867 ft 11 kts 25°
2026-05-06 04:16 37.03486 -113.50889 2866 ft 13 kts 21°
2026-05-06 04:16 37.03579 -113.50844 2866 ft 15 kts 20°
2026-05-06 04:16 37.03680 -113.50786 2867 ft 17 kts 26°
2026-05-06 04:17 37.03784 -113.50731 2870 ft 16 kts 22°
2026-05-06 04:17 37.03886 -113.50677 2870 ft 16 kts 24°
2026-05-06 04:17 37.04000 -113.50617 2868 ft 19 kts 22°
2026-05-06 04:17 37.04126 -113.50551 2867 ft 21 kts 22°
2026-05-06 04:18 37.04271 -113.50477 2863 ft 24 kts 22°
2026-05-06 04:18 37.04419 -113.50397 2864 ft 23 kts 24°
2026-05-06 04:18 37.04564 -113.50319 2864 ft 23 kts 23°
2026-05-06 04:18 37.04684 -113.50254 2866 ft 15 kts 24°
2026-05-06 04:19 37.04767 -113.50290 2863 ft 10 kts 296°
2026-05-06 04:19 37.04771 -113.50301 2862 ft 0 kts 291°
2026-05-06 04:19 37.04774 -113.50312 2862 ft 3 kts 291°
2026-05-06 04:20 37.04785 -113.50343 2862 ft 5 kts 292°
2026-05-06 04:20 37.04796 -113.50385 2863 ft 5 kts 278°
2026-05-06 04:20 37.04777 -113.50425 2862 ft 6 kts 215°
2026-05-06 04:20 37.04774 -113.50427 2862 ft 1 kts 214°
2026-05-06 04:21 37.04757 -113.50440 2862 ft 6 kts 207°
2026-05-06 04:21 37.04471 -113.50590 2858 ft 88 kts 204°
2026-05-06 04:21 37.03675 -113.51018 2868 ft 158 kts 206°
2026-05-06 04:21 37.02610 -113.51614 3437 ft 177 kts 207°
2026-05-06 04:22 37.01497 -113.52277 4361 ft 175 kts 212°
2026-05-06 04:22 37.00714 -113.53448 5097 ft 190 kts 251°
2026-05-06 04:22 37.00734 -113.55197 5322 ft 220 kts 288°
2026-05-06 04:23 37.03353 -113.57807 5970 ft 280 kts 351°
2026-05-06 04:23 37.05277 -113.57399 6915 ft 285 kts 25°
2026-05-06 04:23 37.06935 -113.56043 7933 ft 283 kts 31°
2026-05-06 04:23 37.08603 -113.54739 8961 ft 281 kts 28°
2026-05-06 04:24 37.10285 -113.53542 9977 ft 279 kts 27°
2026-05-06 04:24 37.12077 -113.52584 10611 ft 289 kts
2026-05-06 04:24 37.14117 -113.52772 10803 ft 313 kts 340°
2026-05-06 04:24 37.16098 -113.54132 11010 ft 338 kts 327°
2026-05-06 04:25 37.18102 -113.55797 11434 ft 351 kts 326°
2026-05-06 04:25 37.20150 -113.57502 11956 ft 354 kts 327°
2026-05-06 04:25 37.22310 -113.59013 11984 ft 356 kts 336°
2026-05-06 04:25 37.24469 -113.60524 11977 ft 357 kts 321°
2026-05-06 04:26 37.26079 -113.62890 11981 ft 359 kts 301°
2026-05-06 04:26 37.26945 -113.65839 11956 ft 363 kts 285°
2026-05-06 04:26 37.27422 -113.68961 11949 ft 365 kts 282°
2026-05-06 04:26 37.27827 -113.72108 11941 ft 365 kts 281°
2026-05-06 04:27 37.28212 -113.75227 11932 ft 366 kts 281°
2026-05-06 04:27 37.28774 -113.78342 12133 ft 367 kts 295°
2026-05-06 04:27 37.30144 -113.81024 12853 ft 364 kts 316°
2026-05-06 04:27 37.32167 -113.82889 13706 ft 362 kts 335°
2026-05-06 04:28 37.34581 -113.83739 14444 ft 364 kts 355°
2026-05-06 04:28 37.37125 -113.83499 14997 ft 372 kts 13°
2026-05-06 04:28 37.39590 -113.82451 15670 ft 376 kts 23°
2026-05-06 04:28 37.41933 -113.80945 16326 ft 380 kts 30°
2026-05-06 04:29 37.44075 -113.78963 16917 ft 386 kts 43°
2026-05-06 04:29 37.45915 -113.76493 17623 ft 388 kts 48°
2026-05-06 04:29 37.47705 -113.73937 18280 ft 390 kts 47°
2026-05-06 04:29 37.49520 -113.71388 18878 ft 392 kts 47°
2026-05-06 04:30 37.51546 -113.69087 19481 ft 393 kts 34°
2026-05-06 04:30 37.53848 -113.67227 20124 ft 394 kts 32°
2026-05-06 04:30 37.55398 -113.66030 20531 ft 395 kts 31°
2026-05-06 04:30 37.57751 -113.64229 21110 ft 397 kts 31°
2026-05-06 04:31 37.60078 -113.62438 21911 ft 392 kts 31°
2026-05-06 04:31 37.62403 -113.60629 22559 ft 394 kts 31°
2026-05-06 04:31 37.65507 -113.58187 23168 ft 400 kts 31°
2026-05-06 04:31 37.67104 -113.56921 23495 ft 402 kts 31°
2026-05-06 04:32 37.69470 -113.55039 23952 ft 403 kts 32°
2026-05-06 04:32 37.71844 -113.53143 24431 ft 404 kts 32°
2026-05-06 04:32 37.74233 -113.51233 24884 ft 406 kts 32°
2026-05-06 04:32 37.76626 -113.49317 25326 ft 408 kts 32°
2026-05-06 04:33 37.78999 -113.47415 25743 ft 410 kts 32°
2026-05-06 04:33 37.81414 -113.45478 26158 ft 412 kts 32°
2026-05-06 04:33 37.83842 -113.43530 26606 ft 414 kts 32°
2026-05-06 04:33 37.86292 -113.41562 27006 ft 416 kts 31°
2026-05-06 04:34 37.88748 -113.39588 27348 ft 420 kts 31°
2026-05-06 04:34 37.91216 -113.37603 27738 ft 422 kts 31°
2026-05-06 04:34 37.93703 -113.35602 28148 ft 423 kts 31°
2026-05-06 04:34 37.96164 -113.33620 28560 ft 424 kts 32°
2026-05-06 04:35 37.98654 -113.31612 29095 ft 422 kts 32°
2026-05-06 04:35 38.01115 -113.29626 29745 ft 418 kts 32°
2026-05-06 04:35 38.03561 -113.27651 30336 ft 414 kts 32°
2026-05-06 04:35 38.05980 -113.25695 30841 ft 411 kts 32°
2026-05-06 04:36 38.08388 -113.23747 31248 ft 411 kts 32°
2026-05-06 04:36 38.10805 -113.21791 31630 ft 411 kts 31°
2026-05-06 04:36 38.13209 -113.19843 32073 ft 410 kts 31°
2026-05-06 04:36 38.15607 -113.17899 32565 ft 408 kts 31°
2026-05-06 04:37 38.17992 -113.15964 33032 ft 406 kts 31°
2026-05-06 04:37 38.20369 -113.14034 33452 ft 405 kts 31°
2026-05-06 04:37 38.22715 -113.12128 33852 ft 404 kts 31°
2026-05-06 04:37 38.25115 -113.10175 34169 ft 405 kts 31°
2026-05-06 04:38 38.27470 -113.08258 34308 ft 409 kts 31°
2026-05-06 04:38 38.29877 -113.06297 34495 ft 412 kts 31°
2026-05-06 04:38 38.32295 -113.04327 34763 ft 413 kts 31°
2026-05-06 04:38 38.34717 -113.02351 34953 ft 415 kts 31°
2026-05-06 04:39 38.37219 -113.00480 34943 ft 416 kts 25°
2026-05-06 04:39 38.42531 -112.97633 34951 ft 413 kts 21°
2026-05-06 04:40 38.47855 -112.94940 34946 ft 410 kts 21°
2026-05-06 04:40 38.53135 -112.92186 34925 ft 409 kts 22°
2026-05-06 04:41 38.58381 -112.89397 34905 ft 408 kts 22°
2026-05-06 04:41 38.63592 -112.86609 34873 ft 408 kts 22°
2026-05-06 04:42 38.68837 -112.83800 34829 ft 409 kts 22°
2026-05-06 04:42 38.74101 -112.80977 34835 ft 410 kts 22°
2026-05-06 04:43 38.79371 -112.78147 34842 ft 411 kts 22°
2026-05-06 04:43 38.84659 -112.75302 34819 ft 413 kts 22°
2026-05-06 04:44 38.89962 -112.72444 34828 ft 414 kts 21°
2026-05-06 04:44 38.95246 -112.69588 34831 ft 415 kts 21°
2026-05-06 04:45 39.00567 -112.66706 34820 ft 415 kts 21°
2026-05-06 04:45 39.05894 -112.63816 34818 ft 415 kts 21°
2026-05-06 04:46 39.11218 -112.60924 34826 ft 414 kts 21°
2026-05-06 04:46 39.16531 -112.58032 34820 ft 414 kts 21°
2026-05-06 04:47 39.21826 -112.55146 34831 ft 412 kts 21°
2026-05-06 04:47 39.27105 -112.52264 34832 ft 411 kts 21°
2026-05-06 04:47 39.29724 -112.50835 34310 ft 419 kts 21°
2026-05-06 04:48 39.32470 -112.49599 33763 ft 414 kts 15°
2026-05-06 04:48 39.35244 -112.48643 32863 ft 412 kts 13°
2026-05-06 04:48 39.38031 -112.47777 32013 ft 413 kts 13°
2026-05-06 04:48 39.40838 -112.46920 31101 ft 414 kts 13°
2026-05-06 04:49 39.43640 -112.46050 30410 ft 412 kts 13°
2026-05-06 04:49 39.46406 -112.45169 29787 ft 408 kts 13°
2026-05-06 04:49 39.49151 -112.44277 29068 ft 404 kts 13°
2026-05-06 04:49 39.51857 -112.43386 28428 ft 399 kts 13°
2026-05-06 04:50 39.54529 -112.42501 27825 ft 394 kts 14°
2026-05-06 04:50 39.57173 -112.41620 27206 ft 390 kts 13°
2026-05-06 04:50 39.59795 -112.40745 26595 ft 386 kts 13°
2026-05-06 04:50 39.62354 -112.39891 26012 ft 383 kts 13°
2026-05-06 04:51 39.64956 -112.39022 25425 ft 381 kts 13°
2026-05-06 04:51 39.67485 -112.38177 24852 ft 378 kts 13°
2026-05-06 04:51 39.70033 -112.37326 24279 ft 376 kts 13°
2026-05-06 04:51 39.72568 -112.36478 23687 ft 375 kts 13°
2026-05-06 04:52 39.75096 -112.35632 23048 ft 375 kts 13°
2026-05-06 04:52 39.77613 -112.34789 22424 ft 372 kts 13°
2026-05-06 04:52 39.80108 -112.33952 21838 ft 369 kts 13°
2026-05-06 04:52 39.82589 -112.33119 21260 ft 366 kts 13°
2026-05-06 04:53 39.85041 -112.32295 20705 ft 363 kts 13°
2026-05-06 04:53 39.87475 -112.31478 20146 ft 360 kts 13°
2026-05-06 04:53 39.89885 -112.30668 19623 ft 357 kts 12°
2026-05-06 04:53 39.92292 -112.29858 19074 ft 355 kts 12°
2026-05-06 04:54 39.94685 -112.29052 18528 ft 354 kts 12°
2026-05-06 04:54 39.97059 -112.28252 17951 ft 353 kts 12°
2026-05-06 04:54 39.99405 -112.27461 17363 ft 351 kts 12°
2026-05-06 04:54 40.01750 -112.26669 17110 ft 340 kts 12°
2026-05-06 04:55 40.04006 -112.25905 16927 ft 329 kts 12°
2026-05-06 04:55 40.06198 -112.25163 16741 ft 320 kts 12°
2026-05-06 04:55 40.08363 -112.24432 16576 ft 326 kts 12°
2026-05-06 04:55 40.10569 -112.23688 16397 ft 335 kts 12°
2026-05-06 04:56 40.12863 -112.22912 16205 ft 335 kts 12°
2026-05-06 04:56 40.15096 -112.22154 16072 ft 330 kts 12°
2026-05-06 04:56 40.17326 -112.21397 15909 ft 332 kts 12°
2026-05-06 04:56 40.19563 -112.20637 15744 ft 332 kts 12°
2026-05-06 04:57 40.21795 -112.19879 15464 ft 331 kts 12°
2026-05-06 04:57 40.23983 -112.19134 15278 ft 327 kts 12°
2026-05-06 04:57 40.26184 -112.18385 15080 ft 326 kts 12°
2026-05-06 04:57 40.28382 -112.17638 14895 ft 327 kts 12°
2026-05-06 04:58 40.30579 -112.16888 14701 ft 326 kts 12°
2026-05-06 04:58 40.32774 -112.16146 14523 ft 324 kts 12°
2026-05-06 04:58 40.34950 -112.15394 14356 ft 323 kts 12°
2026-05-06 04:58 40.37125 -112.14652 14168 ft 323 kts 12°
2026-05-06 04:59 40.39298 -112.13911 14003 ft 323 kts 12°
2026-05-06 04:59 40.41470 -112.13174 13812 ft 322 kts 12°
2026-05-06 04:59 40.43639 -112.12435 13645 ft 321 kts 12°
2026-05-06 04:59 40.45794 -112.11696 13444 ft 319 kts 12°
2026-05-06 05:00 40.47934 -112.10964 13261 ft 317 kts 12°
2026-05-06 05:00 40.50066 -112.10239 13073 ft 316 kts 12°
2026-05-06 05:00 40.52191 -112.09521 12900 ft 314 kts 12°
2026-05-06 05:00 40.54305 -112.08804 12725 ft 313 kts 12°
2026-05-06 05:01 40.56414 -112.08184 12556 ft 311 kts
2026-05-06 05:01 40.58540 -112.08000 12385 ft 309 kts
2026-05-06 05:01 40.60690 -112.07916 12212 ft 309 kts
2026-05-06 05:01 40.62844 -112.07814 12033 ft 310 kts
2026-05-06 05:02 40.64991 -112.07885 11926 ft 308 kts 354°
2026-05-06 05:02 40.67124 -112.08168 11809 ft 308 kts 353°
2026-05-06 05:02 40.69240 -112.08464 11696 ft 308 kts 353°
2026-05-06 05:02 40.71376 -112.08739 11577 ft 308 kts 354°
2026-05-06 05:03 40.73515 -112.08997 11453 ft 308 kts 354°
2026-05-06 05:03 40.75627 -112.09245 11330 ft 299 kts 354°
2026-05-06 05:03 40.77656 -112.09485 11210 ft 287 kts 354°
2026-05-06 05:03 40.79606 -112.09716 11139 ft 276 kts 354°
2026-05-06 05:04 40.81483 -112.09938 11032 ft 265 kts 354°
2026-05-06 05:04 40.83291 -112.10152 10820 ft 259 kts 354°
2026-05-06 05:04 40.85084 -112.10366 10532 ft 258 kts 354°
2026-05-06 05:04 40.86854 -112.10576 10189 ft 258 kts 354°
2026-05-06 05:05 40.88650 -112.10790 9861 ft 259 kts 354°
2026-05-06 05:05 40.90445 -112.11004 9504 ft 259 kts 354°
2026-05-06 05:05 40.92245 -112.11218 9136 ft 260 kts 354°
2026-05-06 05:05 40.94047 -112.11352 8769 ft 260 kts
2026-05-06 05:06 40.95742 -112.10567 8408 ft 261 kts 36°
2026-05-06 05:06 40.96880 -112.08754 8089 ft 257 kts 64°
2026-05-06 05:06 40.97263 -112.06496 7812 ft 249 kts 88°
2026-05-06 05:06 40.96922 -112.04317 7504 ft 240 kts 114°
2026-05-06 05:07 40.95949 -112.02602 7201 ft 230 kts 140°
2026-05-06 05:07 40.94599 -112.01598 6907 ft 217 kts 164°
2026-05-06 05:07 40.93164 -112.01328 6667 ft 199 kts 176°
2026-05-06 05:07 40.91842 -112.01210 6416 ft 185 kts 174°
2026-05-06 05:08 40.90588 -112.01070 6177 ft 178 kts 174°
2026-05-06 05:08 40.89376 -112.00929 5953 ft 175 kts 173°
2026-05-06 05:08 40.88164 -112.00788 5723 ft 176 kts 173°
2026-05-06 05:08 40.86938 -112.00645 5485 ft 178 kts 174°
2026-05-06 05:09 40.85685 -112.00492 5235 ft 183 kts 174°
2026-05-06 05:09 40.84426 -112.00350 5002 ft 180 kts 176°
2026-05-06 05:09 40.83199 -112.00207 4780 ft 173 kts 175°
2026-05-06 05:09 40.82034 -112.00071 4533 ft 165 kts 177°
2026-05-06 05:10 40.80920 -111.99950 4301 ft 157 kts 172°
2026-05-06 05:10 40.79908 -111.99831 4232 ft 135 kts 176°
2026-05-06 05:10 40.79106 -111.99735 4231 ft 104 kts 175°
2026-05-06 05:10 40.78697 -111.99684 4232 ft 24 kts 171°
2026-05-06 05:11 40.78542 -111.99625 4231 ft 23 kts 154°
2026-05-06 05:11 40.78449 -111.99491 4229 ft 11 kts 101°
2026-05-06 05:11 40.78461 -111.99427 4230 ft 5 kts 127°
2026-05-06 05:11 40.78431 -111.99398 4230 ft 5 kts 112°
2026-05-06 05:12 40.78446 -111.99358 4229 ft 5 kts 29°
2026-05-06 05:12 40.78482 -111.99353 4230 ft 5 kts
2026-05-06 05:12 40.78519 -111.99350 4230 ft 5 kts
2026-05-06 05:12 40.78555 -111.99348 4230 ft 5 kts
2026-05-06 05:13 40.78589 -111.99351 4230 ft 5 kts 353°
2026-05-06 05:13 40.78623 -111.99356 4230 ft 5 kts 356°
2026-05-06 05:13 40.78644 -111.99343 4230 ft 3 kts 62°
2026-05-06 05:13 40.78649 -111.99319 4230 ft 3 kts 75°
2026-05-06 05:14 40.78655 -111.99291 4230 ft 3 kts 77°
2026-05-06 05:14 40.78660 -111.99258 4230 ft 4 kts 82°
2026-05-06 05:14 40.78662 -111.99220 4230 ft 4 kts 87°
2026-05-06 05:14 40.78662 -111.99178 4230 ft 5 kts 89°
2026-05-06 05:15 40.78663 -111.99129 4230 ft 6 kts 89°
2026-05-06 05:15 40.78667 -111.99065 4230 ft 8 kts 83°
2026-05-06 05:15 40.78672 -111.98983 4230 ft 10 kts 85°
2026-05-06 05:15 40.78679 -111.98884 4230 ft 12 kts 84°
2026-05-06 05:16 40.78690 -111.98779 4230 ft 6 kts 83°
2026-05-06 05:16 40.78688 -111.98727 4230 ft 4 kts 109°
2026-05-06 05:16 40.78658 -111.98719 4230 ft 6 kts 178°
2026-05-06 05:16 40.78628 -111.98718 4230 ft 1 kts 176°
2026-05-06 05:17 40.78621 -111.98717 4230 ft 2 kts 176°
2026-05-06 05:17 40.78614 -111.98716 4230 ft 0 kts 176°